[[{"header":{"parameterUnit":"m.s-1","parameterCategory":1,"la1":30.2991,"la2":30.254,"lo1":-89.0895,"lo2":-89.0444,"dy":0.0017,"dx":0.0017,"nx":28,"ny":28,"refTime":"2024-07-22T09:00:00:Z","depth":0,"parameterNumber":2,"parameterNumberName":"U-component_of_WINDS"},"data":[0,0,0,0,0,0,0,0,0,0,0,0,0,0,0,0,0,0,0,0,0,0,0,0,0,0,0,0,0,0,0,0,0,0,0,0,0,0,0,0,0,0,0,0,0,0,0,0,0,0,0,0,0,0,0,0,0,0,0.0426,0.0426,0,0.0445,0.0445,0.0446,0.0471,0.0472,0.0472,0.0472,0.0491,0.0491,0.0491,0,0,0,0,0,0,0,0,0,0,0,0,0,0.0409,0.0409,0.0426,0.0426,0.0426,0.0445,0.0445,0.0446,0.0471,0.0472,0.0472,0.0473,0.0491,0.0491,0.0491,0,0,0,0,0,0,0,0,0,0,0,0,0,0.0421,0.0409,0.0425,0.0441,0.0443,0.0445,0.0445,0.0446,0.0471,0.0472,0.0472,0.0473,0.0491,0.0491,0.0491,0.048,0,0,0.0492,0.0492,0,0,0,0,0,0,0,0,0.042,0.0421,0.0439,0.044,0.0442,0.0456,0.0446,0.0457,0.0471,0.046,0.0472,0.0473,0.0479,0.048,0.0482,0.048,0.0481,0.0492,0.0492,0.0492,0.0492,0,0,0,0,0,0,0,0.0419,0.0421,0.0433,0.0439,0.0441,0.0447,0.0449,0.0448,0.0466,0.0461,0.0463,0.0465,0.048,0.0482,0.0483,0.0482,0.0492,0.0492,0.0492,0.0492,0.047,0.0469,0,0,0,0,0,0,0.0416,0.042,0.0433,0.0434,0.0432,0.0446,0.0449,0.0451,0.0466,0.0469,0.0465,0.0466,0.0482,0.0483,0.0484,0.047,0.0492,0.0492,0.0492,0.0471,0.047,0.0469,0,0,0,0,0,0,0.0416,0.0417,0.0432,0.0427,0.043,0.0446,0.0448,0.0451,0.0453,0.0468,0.0471,0.0464,0.0482,0.0484,0.048,0.0471,0.0492,0.0492,0.0472,0.0471,0.047,0.0444,0,0,0,0,0,0,0.0415,0.0417,0.0413,0.0427,0.043,0.0428,0.0447,0.0451,0.0454,0.0456,0.0468,0.0471,0.0483,0.048,0.048,0.0472,0.0492,0.0472,0.0471,0.047,0.0445,0.0442,0.0439,0,0,0,0,0,0.0415,0.0405,0.0413,0.0414,0.0425,0.0428,0.0429,0.0443,0.0453,0.0449,0.0458,0.0471,0.0472,0.0479,0.048,0.0472,0.0473,0.0471,0.047,0.0447,0.0443,0.0439,0,0,0,0,0,0,0.0389,0.0407,0.0416,0.041,0.0417,0.0432,0.0428,0.0439,0.0443,0.0445,0.0462,0.0464,0.0459,0.0465,0.0472,0.0461,0.0475,0.0473,0.0457,0.0453,0.045,0.0448,0.0493,0,0,0,0,0,0.0382,0.0383,0.0399,0.0393,0.0396,0.0411,0.0413,0.0423,0.0431,0.0434,0.0443,0.045,0.0452,0.0453,0.0456,0.0447,0.0449,0.0441,0.0438,0.0435,0.0433,0.0429,0.0425,0.0464,0.0464,0.0464,0,0,0.0369,0.0379,0.0379,0.0388,0.0395,0.0395,0.0413,0.0413,0.0413,0.0434,0.0431,0.0438,0.0447,0.044,0.0438,0.0445,0.0423,0.0433,0.0431,0.0431,0.0427,0.0423,0.042,0.0463,0.0463,0.0464,0,0,0.0345,0.0353,0.0349,0.0355,0.0365,0.0375,0.0374,0.0387,0.0393,0.0391,0.0406,0.0406,0.0409,0.0415,0.0418,0.0395,0.0406,0.0396,0.0379,0.0374,0.037,0.0368,0.0359,0.0356,0.0394,0.0394,0.0394,0,0.0328,0.0329,0.0345,0.0343,0.0346,0.0366,0.036,0.0366,0.0376,0.0377,0.0386,0.039,0.0397,0.0392,0.0386,0.0388,0.0387,0.0394,0.037,0.0367,0.0365,0.0357,0.0354,0.0393,0.0393,0.0393,0.0393,0,0.0306,0.0307,0.0302,0.0311,0.0314,0.0311,0.0326,0.0326,0.0336,0.0345,0.0342,0.0352,0.0356,0.0356,0.0366,0.0352,0.0356,0.0367,0.0381,0.0359,0.0352,0.0349,0.0391,0.0391,0.0392,0.0392,0,0,0.0266,0.0285,0.0283,0.0287,0.0299,0.03,0.0297,0.0302,0.0302,0.0308,0.0306,0.0308,0.0318,0.0321,0.0332,0.0327,0.0308,0.0339,0.0339,0.0332,0.0293,0.0284,0.0281,0.0316,0.0316,0.0315,0.0292,0,0.0244,0.0241,0.0255,0.0248,0.0248,0.0266,0.0264,0.0271,0.0279,0.028,0.0289,0.029,0.0304,0.0306,0.0302,0.0311,0.0301,0.0313,0.0313,0.0313,0.031,0.0277,0.0268,0.0245,0.0289,0.0289,0.0289,0,0.0218,0.0223,0.0216,0.0228,0.0229,0.0227,0.0232,0.0233,0.0241,0.0247,0.0251,0.0263,0.026,0.0274,0.0271,0.0279,0.028,0.0284,0.0284,0.0284,0.0299,0.0275,0.0239,0.0235,0.0284,0.0285,0.0285,0,0.0188,0.0194,0.019,0.0193,0.0208,0.0205,0.0211,0.022,0.0222,0.0226,0.0228,0.0232,0.0234,0.0236,0.0249,0.0258,0.0243,0.0259,0.0248,0.0247,0.0243,0.0243,0.0206,0.0245,0.0245,0.0245,0.0245,0,0.0162,0.0157,0.0177,0.0174,0.0169,0.0185,0.0179,0.0186,0.0194,0.0193,0.0209,0.0207,0.0224,0.0225,0.0234,0.0229,0.023,0.0235,0.0237,0.0233,0.0232,0.0233,0.0235,0.0244,0.0245,0.0245,0.0245,0,0.0128,0.0141,0.0138,0.0152,0.0156,0.0151,0.0163,0.0161,0.017,0.0168,0.0169,0.0183,0.0184,0.0197,0.0201,0.0208,0.0198,0.0204,0.0196,0.0197,0.0186,0.0186,0.0147,0.0142,0.0185,0.0184,0.0184,0,0.0109,0.0106,0.012,0.012,0.0125,0.0126,0.0128,0.0144,0.0145,0.0154,0.0151,0.0153,0.0156,0.0157,0.0167,0.017,0.0175,0.0161,0.0176,0.0171,0.0174,0.0174,0.0173,0.0158,0.0157,0.0157,0.0157,0,0.0075,0.0082,0.0085,0.009,0.0092,0.0096,0.0102,0.0101,0.0118,0.0119,0.012,0.0122,0.0126,0.0128,0.0133,0.0138,0.015,0.0152,0.015,0.0145,0.0139,0.0141,0.0187,0.0153,0.0153,0.0153,0.0154,0.0154,0.0048,0.0046,0.0055,0.0057,0.0063,0.0067,0.0066,0.0075,0.0077,0.0082,0.0091,0.009,0.0098,0.0106,0.011,0.011,0.0117,0.0113,0.0112,0.0111,0.0108,0.014,0.0111,0.0111,0.0111,0.0111,0.0111,0,0.0014,0.0021,0.0023,0.003,0.0032,0.0043,0.005,0.005,0.005,0.0056,0.0059,0.006,0.0062,0.0072,0.0075,0.0073,0.0078,0.0073,0.0073,0.0074,0.0102,0.0104,0.0068,0.0068,0.0068,0.0068,0.0068,0.0068,-0.0004,-0.0007,0.0,-0.0001,0.0006,0.0006,0.0009,0.0013,0.0018,0.0019,0.0021,0.0028,0.0036,0.0039,0.0041,0.0044,0.0044,0.0037,0.0041,0.0068,0.0072,0.0076,0.0077,0.0037,0.0037,0.0013,0.0013,0.0013]},{"header":{"parameterUnit":"m.s-1","parameterCategory":1,"la1":30.2991,"la2":30.254,"lo1":-89.0895,"lo2":-89.0444,"dy":0.0017,"dx":0.0017,"nx":28,"ny":28,"refTime":"2024-07-22T09:00:00:Z","depth":0,"parameterNumber":3,"parameterNumberName":"V-component_of_WINDS"},"data":[0,0,0,0,0,0,0,0,0,0,0,0,0,0,0,0,0,0,0,0,0,0,0,0,0,0,0,0,0,0,0,0,0,0,0,0,0,0,0,0,0,0,0,0,0,0,0,0,0,0,0,0,0,0,0,0,0,0,2.291,2.291,0,2.2859,2.2858,2.2858,2.2836,2.2836,2.2836,2.2836,2.2778,2.2776,2.2775,0,0,0,0,0,0,0,0,0,0,0,0,0,2.2985,2.2984,2.291,2.291,2.2909,2.2859,2.2858,2.2857,2.2836,2.2836,2.2836,2.2836,2.2778,2.2776,2.2774,0,0,0,0,0,0,0,0,0,0,0,0,0,2.2945,2.2983,2.291,2.2892,2.289,2.2859,2.2858,2.2857,2.2836,2.2836,2.2836,2.2836,2.2779,2.2777,2.2774,2.2756,0,0,2.2767,2.2766,0,0,0,0,0,0,0,0,2.2947,2.2942,2.2895,2.2893,2.2891,2.2854,2.2863,2.2823,2.2835,2.2856,2.2836,2.2836,2.2803,2.2798,2.2788,2.2753,2.2751,2.2766,2.2765,2.2764,2.2763,0,0,0,0,0,0,0,2.295,2.2944,2.289,2.2895,2.2892,2.2885,2.288,2.2856,2.2829,2.2854,2.2853,2.2847,2.2801,2.2791,2.2787,2.275,2.2767,2.2764,2.2763,2.2762,2.2697,2.2697,0,0,0,0,0,0,2.2956,2.2947,2.2891,2.2888,2.292,2.2884,2.2877,2.2865,2.2829,2.2824,2.2847,2.2846,2.2795,2.2789,2.2784,2.2761,2.2764,2.2762,2.276,2.2697,2.2697,2.2697,0,0,0,0,0,0,2.2958,2.2952,2.2893,2.2917,2.2909,2.2882,2.2869,2.2864,2.2854,2.2824,2.2818,2.2841,2.2795,2.2788,2.2764,2.2758,2.2761,2.2758,2.2698,2.2697,2.2697,2.2713,0,0,0,0,0,0,2.296,2.2953,2.2946,2.2917,2.2908,2.2875,2.2869,2.2863,2.285,2.2849,2.2817,2.2812,2.2794,2.2767,2.2761,2.2755,2.2756,2.2698,2.2698,2.2697,2.2713,2.2713,2.2714,0,0,0,0,0,2.2963,2.2952,2.2946,2.294,2.29,2.2875,2.2869,2.2851,2.285,2.2843,2.2823,2.2813,2.276,2.2765,2.2758,2.2751,2.2698,2.2698,2.2697,2.2713,2.2713,2.2714,0,0,0,0,0,0,2.2979,2.2947,2.2941,2.292,2.2901,2.2871,2.2862,2.2852,2.2831,2.283,2.2807,2.28,2.2777,2.2762,2.2768,2.2731,2.2728,2.2726,2.2742,2.2743,2.2743,2.2747,2.2754,0,0,0,0,0,2.2981,2.2964,2.2937,2.2921,2.2912,2.2889,2.2877,2.2865,2.2843,2.2834,2.2813,2.279,2.2769,2.2755,2.2733,2.2711,2.2703,2.2702,2.2703,2.2703,2.2702,2.2688,2.2688,2.2695,2.2695,2.2695,0,0,2.2982,2.2963,2.2954,2.2924,2.2907,2.2889,2.2881,2.2863,2.2849,2.283,2.2806,2.279,2.2764,2.274,2.2729,2.2726,2.2698,2.2703,2.2703,2.2701,2.2688,2.2687,2.2686,2.2695,2.2695,2.2695,0,0,2.2977,2.2961,2.2947,2.2931,2.2906,2.2891,2.2888,2.286,2.2849,2.2825,2.2811,2.2793,2.2757,2.2738,2.2724,2.2713,2.2702,2.2707,2.2709,2.2696,2.2695,2.2695,2.269,2.2689,2.2705,2.2705,2.2705,0,2.2982,2.2957,2.294,2.2923,2.2909,2.2893,2.2878,2.2862,2.2831,2.2822,2.282,2.2774,2.2755,2.2727,2.2725,2.2714,2.2709,2.271,2.2697,2.2696,2.2695,2.2691,2.269,2.2706,2.2706,2.2706,2.2706,0,2.2964,2.2947,2.2937,2.291,2.2896,2.2879,2.2859,2.2846,2.2835,2.282,2.2795,2.2772,2.2746,2.2738,2.2727,2.2709,2.2708,2.2702,2.2698,2.2696,2.2691,2.2689,2.2707,2.2707,2.2707,2.2706,0,0,2.2967,2.2932,2.2928,2.2916,2.2888,2.2874,2.2856,2.2832,2.2822,2.2801,2.2785,2.2755,2.275,2.2734,2.272,2.2709,2.2701,2.2704,2.2703,2.2704,2.268,2.2684,2.2683,2.2694,2.2694,2.2694,2.2682,0,2.2958,2.2928,2.2912,2.2888,2.2871,2.2856,2.2841,2.2821,2.2806,2.2789,2.2771,2.2751,2.2745,2.2736,2.2724,2.2705,2.2696,2.2705,2.2678,2.2677,2.2685,2.268,2.2685,2.2675,2.268,2.268,2.2679,0,2.2943,2.2925,2.29,2.2875,2.2867,2.2854,2.2831,2.2815,2.2792,2.2782,2.2765,2.2751,2.2731,2.2729,2.27,2.2707,2.2695,2.2684,2.2683,2.2679,2.2678,2.2676,2.2672,2.267,2.2676,2.2677,2.2677,0,2.2948,2.2916,2.2897,2.2887,2.2857,2.2848,2.2835,2.2813,2.28,2.2779,2.277,2.2747,2.2734,2.2715,2.2696,2.2696,2.2668,2.2665,2.2658,2.2659,2.2652,2.2653,2.2646,2.2645,2.2645,2.2645,2.2645,0,2.2939,2.2924,2.2899,2.2887,2.287,2.2852,2.2834,2.282,2.28,2.2784,2.2769,2.2754,2.2729,2.2711,2.2695,2.2673,2.2667,2.2658,2.2654,2.2659,2.266,2.265,2.265,2.2645,2.2645,2.2645,2.2645,0,2.2941,2.2924,2.2902,2.2876,2.2869,2.2858,2.2835,2.2822,2.2807,2.2787,2.2781,2.2757,2.2734,2.2713,2.2682,2.2672,2.265,2.2645,2.2658,2.2656,2.265,2.2651,2.2636,2.2633,2.2635,2.2635,2.2635,0,2.2936,2.2925,2.2898,2.2888,2.2875,2.2858,2.2845,2.2826,2.2813,2.2787,2.2777,2.2754,2.2735,2.2699,2.2678,2.2654,2.2648,2.2644,2.2644,2.265,2.2648,2.2649,2.2647,2.2645,2.2645,2.2645,2.2645,0,2.293,2.2922,2.2905,2.2885,2.2871,2.2854,2.2836,2.2827,2.2805,2.2791,2.2769,2.2754,2.2724,2.2701,2.2675,2.2659,2.2648,2.2645,2.2642,2.2647,2.2656,2.2651,2.2659,2.2645,2.2645,2.2645,2.2645,2.2645,2.2928,2.2917,2.2898,2.2879,2.2864,2.2848,2.2835,2.2819,2.2801,2.2777,2.2766,2.2744,2.2721,2.2686,2.267,2.2652,2.2649,2.2645,2.2644,2.2643,2.2644,2.2659,2.2647,2.2647,2.2647,2.2647,2.2646,0,2.2921,2.2908,2.2891,2.2868,2.2853,2.2846,2.2826,2.2813,2.2795,2.2775,2.2757,2.2732,2.2709,2.2687,2.2663,2.2652,2.2646,2.2646,2.2647,2.2643,2.2648,2.2653,2.2651,2.2651,2.2651,2.2651,2.2651,2.2651,2.2916,2.2897,2.2888,2.2861,2.2847,2.2827,2.2816,2.2801,2.2786,2.2759,2.2741,2.2727,2.2706,2.268,2.2659,2.2653,2.2645,2.2646,2.2638,2.2643,2.2643,2.2643,2.2647,2.2645,2.2645,2.2635,2.2635,2.2635]}]]